Regional Weather Roundup
Issued by NWS

Home | Current Version | Previous Version | Graphics & Text | Print | Product List | Glossary On
Versions: 1 2 3 4 5 6 7 8 9 10 11 12 13 14 15 16 17 18 19 20 21 22 23 24 25 26 27 28 29 30 31 32 33 34 35 36 37 38 39 40 41 42 43 44 45 46 47 48 49 50
000
ASUS45 KSLC 270010
RWRUT

UTAH REGIONAL WEATHER ROUNDUP
NATIONAL WEATHER SERVICE SALT LAKE CITY UT
600 PM MDT SUN JUL 26 2015

UTZ001>011-023>025-270100-

NORTHERN UTAH

CITY           SKY/WX    TMP DP  RH WIND       PRES   REMARKS
BRIGHAM CITY   SUNNY     93  17   6 NW7       29.84F
HILL AFB       SUNNY     92  26   9 NW5       29.88F
LOGAN            N/A    N/A N/A N/A MISG      29.86F
OGDEN          SUNNY     94  23   8 NW8       29.84F
PROVO AIRPORT  MOSUNNY   91  52  25 SW9       29.86F
SALT LAKE CITY MOSUNNY   97  19   6 NW12      29.80F HX  90
VERNAL         MOSUNNY   92  29  10 SE6       29.93F
WENDOVER       MOSUNNY   95  30  10 E8        29.79F
HEBER CITY     SUNNY     90  30  12 SW13G18   29.95F
WEST JORDAN    SUNNY     95  30  10 S9        29.85F

$$

UTZ012>022-026-027-270100-

SOUTHERN/CENTRAL UTAH

CITY           SKY/WX    TMP DP  RH WIND       PRES   REMARKS
BLANDING       PTSUNNY   84  41  22 CALM      30.15F
BRYCE CANYON   SUNNY     80  27  14 SW15G24   30.18F
CEDAR CITY     SUNNY     88  11   5 S16G24    30.02F
DELTA          SUNNY     96  17   6 SW18G28   29.87F
HANKSVILLE     SUNNY     93  36  13 S23       29.92F
MILFORD        SUNNY     93  26   9 SW22G30   29.93F
MOAB/CYNLANDS  SUNNY     93  43  17 S12       29.92F
PRICE          PTSUNNY   90  28  11 SW12      30.00F
ST GEORGE      CLEAR     99  34  10 SW13      29.82F HX  93

$$

REGIONAL REPORTS     COLORADO/ARIZONA

CITY           SKY/WX    TMP DP  RH WIND       PRES   REMARKS
CRAIG, CO      MOSUNNY   89  36  15 S17G25    30.04F
GRAND JUNCTION PTSUNNY   87  44  22 SE29      29.99F
RIFLE          PTSUNNY   85  42  22 S21G29    30.04R
MONTROSE       CLOUDY    78  51  38 E5        30.13F
CORTEZ         SUNNY     86  46  24 VRB7      30.08F
PAGE, AZ       NOT AVBL
GRAND CANYON   SUNNY     86  20   9 SW10G24   30.14F
KINGMAN        SUNNY     96  28   9 S16G22    29.90F HX  90
FLAGSTAFF      MOSUNNY   80  23  12 W13G23    30.20F

$$

REGIONAL REPORTS    NEVADA/IDAHO/WYOMING

CITY           SKY/WX    TMP DP  RH WIND       PRES   REMARKS
LAS VEGAS, NV  SUNNY    102  17   5 SW17G24   29.71F HX  94
ELY            SUNNY     87  15   7 S15G22    29.99F
ELKO           SUNNY     89  28  11 W17G25    29.88F
POCATELLO, ID  SUNNY     88  38  17 W5        29.87F
BURLEY         SUNNY     83  45  26 VRB7      29.85F
EVANSTON, WY   SUNNY     84  13   7 SW14G25   30.08F
ROCK SPRINGS   SUNNY     87  20   8 CALM      30.03F
KEMMERER       SUNNY     82  18   9 SW17G29   30.09F

$$



USA.gov is the U.S. government's official web portal to all federal, state and local government web resources and services.